Flag for Honduras Weather past 2 weeks in Tegucigalpa, Honduras

Now
68 °F

Passing clouds.


Feels Like: 68 °F
Forecast: 66 / 84 °F
Wind: 7 mph from North

Location: Tegucigalpa Airport

Current Time: Aug 5, 2015 at 2:39:51 AM

Latest Report: Aug 5, 2015 at 1:00 AM


Visibility: N/A

Pressure: 30.12 "Hg (26.64 "Hg at 1054m altitude)

Humidity: 94%

Dew point: 66 °F

Location of TegucigalpaLocation

Historic Weather in Tegucigalpa — Graph

°F

Tegucigalpa temperature yesterday

Maximum temperature yesterday: 86 °F (at 12:00 PM)
Minimum temperature yesterday: 66 °F (at 12:00 AM)
Average temperature yesterday: 76 °F

Past Weeks' High & Low Weather Summary

 TemperatureHumidityPressure
High88 °F (Aug 3, 2:00 PM)100% (Jul 21, 6:00 AM)30.18 "Hg (Jul 21, 6:00 AM)
Low64 °F (Jul 21, 1:00 AM)38% (Aug 3, 1:00 PM)29.89 "Hg (Jul 23, 10:00 PM)
Average75 °F71%30.08 "Hg
* Reported Jul 21 1:00 AM — Aug 5 1:00 AM, Tegucigalpa, Weather by CustomWeather, © 2015

Note: Actual official high and low records may vary slightly from our data, if they occured in-between our weather recording intervals... More about our weather records

Advertising

Tegucigalpa weather history for previous 24 hours

 ConditionsComfort  
Time TempWeatherWind HumidityBarometerVisibility
1:00 AM
Wed, Aug 5
68 °FPassing clouds.7 mph94%30.12 "HgN/A
12:00 AM70 °FPassing clouds.7 mph88%30.12 "HgN/A
11:00 PM
Tue, Aug 4
72 °FPassing clouds.5 mph78%30.12 "HgN/A
10:00 PM73 °FPassing clouds.5 mph74%30.12 "HgN/A
9:00 PM73 °FPassing clouds.3 mph69%30.09 "HgN/A
8:00 PM77 °FPassing clouds.No wind57%30.07 "HgN/A
7:00 PM79 °FPassing clouds.5 mph51%30.07 "HgN/A
6:00 PM81 °FPassing clouds.7 mph48%30.04 "HgN/A
5:00 PM81 °FScattered clouds.9 mph48%30.04 "HgN/A
4:00 PM84 °FScattered clouds.9 mph43%30.01 "HgN/A
3:00 PM84 °FScattered clouds.12 mph45%30.04 "HgN/A
2:00 PM84 °FScattered clouds.9 mph45%30.04 "HgN/A
1:00 PM86 °FScattered clouds.9 mph46%30.07 "HgN/A
12:00 PM86 °FScattered clouds.12 mph43%30.07 "HgN/A
11:00 AM82 °FScattered clouds.9 mph45%30.09 "HgN/A
10:00 AM81 °FScattered clouds.9 mph48%30.09 "HgN/A
9:00 AM77 °FScattered clouds.7 mph61%30.09 "HgN/A
8:00 AM73 °FScattered clouds.7 mph69%30.09 "HgN/A
7:00 AM70 °FPartly sunny.9 mph83%30.09 "HgN/A
6:00 AM68 °FBroken clouds.7 mph88%30.09 "Hg4 mi
5:00 AM66 °FPassing clouds.3 mph94%30.07 "HgN/A
4:00 AM66 °FPassing clouds.2 mph88%30.07 "HgN/A
3:00 AM68 °FPassing clouds.2 mph88%30.07 "HgN/A
2:00 AM68 °FPassing clouds.No wind94%30.07 "HgN/A
Weather by CustomWeather, © 2015

See weather overviewHow to use our weather pages